{"data":{"norad_id":61601,"epoch":"2026-09-19T14:00:58.652352Z","epoch_age_seconds":97259,"freshness":"FRESH","line1":"1 61601U 24188H   26262.58401218  .00000055  00000+0  10893-3 0  9997","line2":"2 61601  87.9190 347.1426 0002448  85.8977 274.2435 13.17651665 98318","mean_motion":13.17651665,"eccentricity":0.0002448,"inclination_deg":87.919,"raan_deg":347.1426,"arg_perigee_deg":85.8977,"mean_anomaly_deg":274.2435,"bstar":0.00010893,"rev_number":9831,"period_min":109.28533225054,"perigee_km":1191.8494638482,"apogee_km":1195.5566367368,"semimajor_km":7571.8400502925,"source":"CELESTRAK","updated_at":"2026-09-20T09:00:44.799496Z"}}